{"data":{"norad_id":65099,"epoch":"2026-09-20T12:51:44.458272Z","epoch_age_seconds":117066,"freshness":"FRESH","line1":"1 65099U 25167X   26263.53593123  .00018724  00000+0  56376-3 0  9991","line2":"2 65099  53.1591 197.2191 0001739  77.4009 282.7188 15.34408412 63379","mean_motion":15.34408412,"eccentricity":0.0001739,"inclination_deg":53.1591,"raan_deg":197.2191,"arg_perigee_deg":77.4009,"mean_anomaly_deg":282.7188,"bstar":0.00056376,"rev_number":6337,"period_min":93.847243585106,"perigee_km":461.48862031468,"apogee_km":463.86785585448,"semimajor_km":6840.8152380846,"source":"CELESTRAK","updated_at":"2026-09-21T09:00:35.525421Z"}}